Els Cortals - Les Guilleries





Hora UTC 05:05
Temperatura 9.3 ºC
Humitat 93.0 %
Pressió 1014.2 hPa
Pluja 0.0 mm
Velocitat vent 0.0 km/h
Direcció vent WSW
Radiació solar 0.0 W/m²

Dades diàries 2020-09-29



Hora UTC (hivern +1h; estiu +2h)
Temperatura (ºC) Humitat (%) Pressió (hPa) Velocitat vent (km/h) Precipitació (mm) Radiació solar (W/m²)
Hora UTC Aire Humitat Pressió Vel. Dir. Vel. Max Dir. Intent. màx 5 min. Rad. Sol.
00:05 8.9 92.0 1014.7 0.0 SW 0.0 0.0 0.0
00:05 8.9 91.0 1014.7 0.0 SW 0.0 0.0 0.0
00:10 8.7 91.0 1014.8 0.0 SW 0.0 0.0 0.0
00:15 8.7 92.0 1014.8 0.0 SW 0.0 0.0 0.0
00:20 8.7 92.0 1014.8 0.0 SW 0.0 0.0 0.0
00:25 8.7 92.0 1014.7 0.0 SW 0.0 0.0 0.0
00:30 8.8 92.0 1014.7 0.0 SW 0.0 0.0 0.0
00:35 8.8 92.0 1014.6 0.0 SW 0.0 0.0 0.0
00:40 8.7 92.0 1014.6 0.0 SW 0.0 0.0 0.0
00:45 8.7 92.0 1014.6 0.0 SW 0.0 0.0 0.0
00:50 8.8 92.0 1014.6 0.0 SW 0.0 0.0 0.0
00:55 8.7 92.0 1014.6 0.0 SW 0.0 0.0 0.0
01:00 8.6 92.0 1014.6 0.0 SW 0.0 0.0 0.0
01:05 8.7 92.0 1014.5 0.0 SW 0.0 0.0 0.0
01:10 8.8 92.0 1014.5 0.0 SW 0.0 0.0 0.0
01:15 8.9 92.0 1014.5 0.0 SW 0.0 0.0 0.0
01:20 8.9 92.0 1014.5 0.0 SW 0.0 0.0 0.0
01:25 8.8 91.0 1014.4 0.0 SW 0.0 0.0 0.0
01:30 8.8 91.0 1014.4 0.0 SW 0.0 0.0 0.0
01:35 8.7 91.0 1014.4 0.0 SW 0.0 0.0 0.0
01:40 8.6 91.0 1014.4 0.0 SW 0.0 0.0 0.0
01:45 8.6 91.0 1014.3 0.0 SW 0.0 0.0 0.0
01:50 8.4 91.0 1014.3 0.0 SW 0.0 0.0 0.0
01:55 8.4 92.0 1014.4 0.0 SW 0.0 0.0 0.0
02:00 8.5 92.0 1014.3 0.0 SW 0.0 0.0 0.0
02:05 8.5 92.0 1014.2 0.0 SW 0.0 0.0 0.0
02:10 8.5 92.0 1014.2 0.0 SW 0.0 0.0 0.0
02:15 8.6 92.0 1014.3 0.0 SW 0.0 0.0 0.0
02:20 8.6 92.0 1014.3 0.0 SW 0.0 0.0 0.0
02:25 8.4 92.0 1014.2 0.0 SW 0.0 0.0 0.0
02:30 8.3 92.0 1014.1 0.0 SW 0.0 0.0 0.0
02:35 8.2 92.0 1014.1 0.0 SW 0.0 0.0 0.0
02:40 8.1 92.0 1014.1 0.0 SW 0.0 0.0 0.0
02:45 7.9 92.0 1014.0 0.0 SW 0.0 0.0 0.0
02:50 7.9 92.0 1014.0 0.0 SW 0.0 0.0 0.0
02:55 7.8 92.0 1014.0 0.0 SW 0.0 0.0 0.0
03:00 7.7 92.0 1014.0 3.2 SW 3.2 0.0 0.0
03:05 7.6 92.0 1014.0 0.0 NW 6.4 0.0 0.0
03:15 7.7 92.0 1013.9 0.0 NW 3.2 0.0 0.0
03:20 7.8 92.0 1013.9 0.0 NW 0.0 0.0 0.0
03:25 7.8 93.0 1013.9 0.0 NW 0.0 0.0 0.0
03:30 7.8 93.0 1014.0 0.0 NW 0.0 0.0 0.0
03:35 7.8 92.0 1013.9 0.0 NW 0.0 0.0 0.0
03:40 7.8 92.0 1014.0 0.0 NW 0.0 0.0 0.0
03:45 7.7 92.0 1014.0 0.0 NW 0.0 0.0 0.0
03:50 7.7 92.0 1014.0 0.0 NW 0.0 0.0 0.0
03:55 7.7 92.0 1014.0 0.0 NW 0.0 0.0 0.0
04:00 7.8 92.0 1013.9 0.0 NW 0.0 0.0 0.0
04:05 7.9 92.0 1013.9 0.0 NW 0.0 0.0 0.0
04:10 7.8 92.0 1014.0 0.0 NW 0.0 0.0 0.0
04:15 7.8 92.0 1014.0 0.0 NW 3.2 0.0 0.0
04:20 8.1 93.0 1014.1 0.0 WSW 3.2 0.0 0.0
04:25 8.3 93.0 1014.1 8.0 WSW 8.0 0.0 0.0
04:30 8.9 93.0 1014.1 1.6 WSW 11.3 0.0 0.0
04:35 9.1 93.0 1014.2 1.6 SW 8.0 0.0 0.0
04:40 9.3 93.0 1014.1 3.2 W 8.0 0.0 0.0
04:45 9.2 92.0 1014.2 0.0 WSW 3.2 0.0 0.0
04:50 9.1 92.0 1014.2 3.2 WSW 6.4 0.0 0.0
04:55 9.0 92.0 1014.2 0.0 WSW 6.4 0.0 0.0
05:00 9.1 92.0 1014.2 3.2 SW 8.0 0.0 0.0
05:05 9.3 93.0 1014.2 0.0 WSW 9.7 0.0 0.0
Màxima 9.4 93.0 1014.8 8.0 WSW 11.3 0.0 0.0
Mínima 7.6 91.0 1013.9
Total 0.0